"Pseudo-MPEC" for P21DECz
Created 2023 Apr 8 17:22:06 UT using Find_Orb
Click here for an explanation of pseudo-MPECs
Astrometry: P21DECz C2023 03 19^$yZ%,dK+p$:s*j/^mMw2gmpN85uQu3UO25TrSZ$I^rvi,'c3%vL
F52 P21DECz C2023 03 19FNd5I;d\J:H9Hul(yoAKldBRk+ep[@C[naqrW[.
Astrometry[OW
F52 P21DECz C2023 03 19uxRgZ+7!0)eR5W^'s@$Ui@LaQao27-i2OIqfK\Ij4^GL8)F3-UV'
F52 P21DECz* C2023 03 19[=XBfk3GRVY[+G+gJuU.C(!(hg7DoraMn'r\N%8b`GbI42ECuB%v
F52 P21DECz C2023 03 19Had5x.^pIfe*8!3=9O$Xvf[dx-s3IJtg:sOxCRb]WcJt#yx5Op9=
F52 P21DECz C2023 03 19wjygn$[ri1J2=iOF8J@o#s*R7!E.RFS+3!cO\[rG,+eOZ?uLDoB!
F52 P21DECz C2023 03 19BT4[yvgy)Mg*6pAL
redacted;ih2N-a.'\4%+VN7Zbr48`gBgTL#
F52 P21DECz C2023 03 19Km)n6;BwP$8)DO0LfDh^2xHeTOCYBLM2Bo0Dy4]r[m\-3Z
clicku
F52 P21DECz C2023 03 19Km!Jm$iGSf'Om.b5XrYW`pO2Qvn8/O35vi9iG(6IqOZ7Q8cdoJ[y
F52 P21DECz C2023 03 196fu+%_4lt053S\o
herei\r
for;
explanationf4uWe3AP\Ee[[Q1
F52 P21DECz C2023 03 19@0J.#xr8eKu4o1-dwA_UaLPkbuVx0-cQr39ue2g*7b,t%pK!/Zb[
F52 P21DECz C2023 03 190SD+cBpJ+GBr:=7L+AdG9JusA!t*[\flidQR`GVEHyqc.i!)S#vX
F52 Station data: (F52) Pan-STARRS 2, Haleakala (N20.707382 W156.255910) US/Hawaii. Observers J. Bulger, T. Dukes, T. Lowe, A. Schultz, M. Willman. Measurers K. Chambers, S. Chastel, T. de Boer, L. Denneau, J. Fairlamb, H. Flewelling, M. Huber, C.-C. Lin, E. Magnier, Y. Ramanjooloo, R. Wainscoat, R. Weryk. 1.8-m Ritchey-Chrétien + CCD. Orbital elements: P21DECz Perihelion 2023 Feb 26.15216 +/- 44.4 TT = 3:39:06 (JD 2460001.65216) Epoch 2023 Mar 19.0 TT = JDT 2460022.5 Earth MOID: 0.4864 Ma: 0.0895 M 5.36581849 +/- 24 (J2000 ecliptic) AutoNEOCP n 0.25738011 +/- 0.204 Peri. 343.13130 +/- 47 a 2.44766921 +/- 1.29 Node 168.91553 +/- 3.7 e 0.3980773 +/- 0.206 Incl. 9.26528 +/- 3.6 P 3.83 H 21.83 G 0.15 U 11.7 SR q 1.47330766 +/- 0.34 Q 3.42203076 +/- 2.73 From 12 observations 2023 Mar. 19 (5.8 hr); mean residual 0".11
Residuals in arcseconds: 230319 F52 .15- .04- 230319 F52 .13+ .03+ 230319 F52 .10- .10+ 230319 F52 .09- .15- 230319 F52 .09+ .10- 230319 F52 .01- .20- 230319 F52 .08- .07+ 230319 F52 .27+ .21+ 230319 F52 .02+ .01- 230319 F52 .06- .03+ 230319 F52 .08- .04- 230319 F52 .04+ .09+ Ephemerides (geocentric): Date (UTC) HH RA Dec delta r elong mag " sig PA ---- -------- ------------ ------------ ------ ------ ----- --- -------- 2023 04 08 17 10 05 31.381 +15 28 32.92 .67032 1.5188 129.6 23.2 4726 168 2023 04 08 18 10 05 35.136 +15 28 43.06 .67061 1.5189 129.6 23.2 4743 168 2023 04 08 19 10 05 38.894 +15 28 53.15 .67089 1.5190 129.5 23.2 4760 168 2023 04 08 20 10 05 42.654 +15 29 03.20 .67118 1.5191 129.5 23.2 4777 168 2023 04 08 21 10 05 46.416 +15 29 13.20 .67146 1.5192 129.5 23.2 4793 168 2023 04 08 22 10 05 50.180 +15 29 23.15 .67174 1.5193 129.4 23.2 4810 168 2023 04 08 23 10 05 53.947 +15 29 33.06 .67203 1.5194 129.4 23.2 4827 168 2023 04 09 00 10 05 57.716 +15 29 42.92 .67231 1.5195 129.4 23.2 4844 169 2023 04 09 01 10 06 01.488 +15 29 52.74 .67260 1.5196 129.4 23.2 4861 169 2023 04 09 02 10 06 05.262 +15 30 02.51 .67289 1.5196 129.3 23.2 4878 169 2023 04 09 03 10 06 09.038 +15 30 12.23 .67317 1.5197 129.3 23.2 4895 169 2023 04 09 04 10 06 12.816 +15 30 21.90 .67346 1.5198 129.3 23.2 4912 169 2023 04 09 05 10 06 16.597 +15 30 31.53 .67374 1.5199 129.2 23.2 4929 169 2023 04 09 06 10 06 20.380 +15 30 41.11 .67403 1.5200 129.2 23.3 4946 169 2023 04 09 07 10 06 24.166 +15 30 50.65 .67432 1.5201 129.2 23.3 4963 169 2023 04 09 08 10 06 27.954 +15 31 00.14 .67460 1.5202 129.2 23.3 4980 169 2023 04 09 09 10 06 31.744 +15 31 09.58 .67489 1.5203 129.1 23.3 4997 169 2023 04 09 10 10 06 35.537 +15 31 18.98 .67518 1.5204 129.1 23.3 5014 169 2023 04 09 11 10 06 39.331 +15 31 28.33 .67546 1.5205 129.1 23.3 5031 169 2023 04 09 12 10 06 43.129 +15 31 37.64 .67575 1.5205 129.0 23.3 5048 169 2023 04 09 13 10 06 46.928 +15 31 46.89 .67604 1.5206 129.0 23.3 5066 169 2023 04 09 14 10 06 50.730 +15 31 56.11 .67632 1.5207 129.0 23.3 5083 169 2023 04 09 15 10 06 54.534 +15 32 05.27 .67661 1.5208 129.0 23.3 5100 169 2023 04 09 16 10 06 58.340 +15 32 14.39 .67690 1.5209 128.9 23.3 5117 169 2023 04 09 17 10 07 02.149 +15 32 23.47 .67719 1.5210 128.9 23.3 5135 169 2023 04 09 18 10 07 05.960 +15 32 32.49 .67748 1.5211 128.9 23.3 5152 169 2023 04 09 19 10 07 09.773 +15 32 41.48 .67777 1.5212 128.9 23.3 5169 169 2023 04 09 20 10 07 13.589 +15 32 50.41 .67805 1.5213 128.8 23.3 5187 169 2023 04 09 21 10 07 17.407 +15 32 59.30 .67834 1.5214 128.8 23.3 5204 169 2023 04 09 22 10 07 21.227 +15 33 08.14 .67863 1.5215 128.8 23.3 5221 169 2023 04 09 23 10 07 25.049 +15 33 16.94 .67892 1.5215 128.7 23.3 5239 169 2023 04 10 00 10 07 28.874 +15 33 25.69 .67921 1.5216 128.7 23.3 5256 169 2023 04 10 01 10 07 32.701 +15 33 34.40 .67950 1.5217 128.7 23.3 5274 169 2023 04 10 02 10 07 36.530 +15 33 43.06 .67979 1.5218 128.7 23.3 5291 169 2023 04 10 03 10 07 40.362 +15 33 51.67 .68008 1.5219 128.6 23.3 5309 169 2023 04 10 04 10 07 44.195 +15 34 00.24 .68037 1.5220 128.6 23.3 5327 169 2023 04 10 05 10 07 48.032 +15 34 08.76 .68066 1.5221 128.6 23.3 5344 169 2023 04 10 06 10 07 51.870 +15 34 17.24 .68095 1.5222 128.5 23.3 5362 169 2023 04 10 07 10 07 55.710 +15 34 25.67 .68124 1.5223 128.5 23.3 5379 169 2023 04 10 08 10 07 59.553 +15 34 34.05 .68153 1.5224 128.5 23.3 5397 169 2023 04 10 09 10 08 03.398 +15 34 42.39 .68182 1.5225 128.5 23.3 5415 169 2023 04 10 10 10 08 07.245 +15 34 50.69 .68211 1.5226 128.4 23.3 5432 169 2023 04 10 11 10 08 11.095 +15 34 58.93 .68241 1.5226 128.4 23.3 5450 169 2023 04 10 12 10 08 14.947 +15 35 07.14 .68270 1.5227 128.4 23.3 5468 169 2023 04 10 13 10 08 18.801 +15 35 15.29 .68299 1.5228 128.4 23.3 5486 169 2023 04 10 14 10 08 22.657 +15 35 23.40 .68328 1.5229 128.3 23.3 5504 169 2023 04 10 15 10 08 26.515 +15 35 31.47 .68357 1.5230 128.3 23.3 5521 169 2023 04 10 16 10 08 30.376 +15 35 39.49 .68387 1.5231 128.3 23.3 5539 169